{"data":{"norad_id":60261,"intl_designator":"2024-131G","name":"STARLINK-32160","alt_names":[],"object_type":"PAYLOAD","status":"ACTIVE","operator":null,"country":"US","launch_date":"2024-07-27","launch_site_code":"AFETR","launch_vehicle":null,"mission":null,"orbit_class":"UNKNOWN","rcs_meters":null,"size_class":null,"mass_kg":null,"dimensions":null,"purposes":["comms"],"wikipedia_slug":null,"has_3d_model":false,"image_url":null,"decayed_at":null,"tle_current":{"epoch":"2026-05-25T03:59:40.900704Z","epoch_age_seconds":63838,"freshness":"FRESH","line1":"1 60261U 24131G   26145.16644561  .00001313  00000+0  56466-4 0  9995","line2":"2 60261  53.1603  57.4760 0001201  77.7616 282.3519 15.30192937103477","mean_motion":15.30192937,"eccentricity":0.0001201,"inclination_deg":53.1603,"raan_deg":57.476,"arg_perigee_deg":77.7616,"mean_anomaly_deg":282.3519,"bstar":5.6466e-5,"rev_number":10347,"period_min":94.105780073928,"perigee_km":474.41306822901,"apogee_km":476.05924846164,"semimajor_km":6853.3731583453,"source":"CELESTRAK","updated_at":"2026-05-25T13:38:19.199433Z"}}}